THOR ABLESTAR DEB

Satellite information

Favourite Embed

Satellite Type and Status

DEBRISIN ORBIT

Key statistics

Satellite THOR ABLESTAR DEB at a glance.

Uptime

23438

Days in orbit

Revolutions

≈ 13.9

Per day

Orbit

LEO

Low Earth Orbit

Inclination

66.6

Latest

Satellite identification and parameters

Extended collection of information and parameters for THOR ABLESTAR DEB.

Object identification

Identified? True

Debris? True

Object name: THOR ABLESTAR DEB

International designator: 1961-015AB

Object number (NORAD): 141

Object ID (CCSDS): 141

Country: UNITED STATES OF AMERICA (US)

Current information (Y/N): Y

RCS size: MEDIUM

Orbital parameters

Period: 103.693 minutes

Inclination: 66.5896 deg

SMA: 7311.268 km

Apoapsis: 978.102 km

Periapsis: 888.164 km

RAAN: 39.2242 deg

Eccentricy: 0.00615063

Argument of periapsis: 240.4274 deg

Mean anomaly: 119.0663 deg

Mean motion: 13.88716793 rev/day

Mean motion (dot): 0.0000037 rev/day2

B* drag term: 0.00036571811 1/REarth

Two-line elements (TLE)

Creation date: Aug. 30, 2025, 3:38 a.m.

Reference frame: TEME

Reference center: EARTH

Epoch: Aug. 29, 2025, 8:22 p.m. UTC

TLE line 0: 0 THOR ABLESTAR DEB

TLE line 1: 1 00141U 61015AB 25241.84907007 .00000370 00000-0 36572-3 0 9994

TLE line 2: 2 00141 66.5896 39.2242 0061506 240.4274 119.0663 13.88716793231365

Live tracking on map

Real-time ground track for satellite THOR ABLESTAR DEB.

In-orbit conjunctions

A list of the most updated potential collisions computed for object THOR ABLESTAR DEB.

Target Orbit TCA Probability of collision Miss distance Type
THOR ABLESTAR DEB LEO 2025-02-07 01:30:28 0.0002520657 182.0 (m) DEBRIS
COSMOS 1934 LEO 2024-12-12 23:03:23 0.0001172131 544.0 (m) PAYLOAD

Associated space launch

THOR ABLESTAR DEB was lifted into orbit during the mission ‘Thor DM-21 Ablestar | Transit 4A & Injun-1 & Solrad 3’, on board a Thor DM-21 Ablestar space rocket.

The launch took place on June 29, 1961, 4:23 a.m. from Space Launch Complex 17B.

For more information about the launch, click the button.

Launch to space Thor DM-21 Ablestar | Transit 4A & Injun-1 & Solrad 3
Thor DM-21 Ablestar | Transit 4A & Injun-1 & Solrad 3

Agency: N/A

Status: Launch Successful

Launch date: June 29, 1961, 4:23 a.m. UTC

Rocket: Thor DM-21 Ablestar

Launch pad: Space Launch Complex 17B

Location: Cape Canaveral SFS, FL, USA

...

Latest news about this satellite

There are no fresh news available about this satellite. Check back as we update our databases every day.


Newsletter sign-up

Weekly statistics, charts and insights to help you stay on top of the space industry.